Location: Tucson
(32.2217°N, 110.9265°W)
Time: 17:11:21
(UTC-07:00)

Hubble Space Telescope - Pass Details

Date: 07 October 2021
Orbit: 535 x 538 km, 28.5° (Epoch: 23 October)

Event Time Altitude Azimuth Distance (km) Brightness Sun altitude
Exits shadow 04:49:03 11° 186° (S) 1,684 3.2 -20.4°
Maximum altitude 04:50:55 15° 157° (SSE) 1,500 3.2 -20.0°
Drops below altitude 10° 04:53:15 10° 122° (ESE) 1,778 4.1 -19.6°
Sets 04:56:19 0° 98° (E) 2,670 5.8 -18.9°
